Hourly Data Report for October 23, 2014

All times are specified in Local Standard Time (LST). Add 1 hour to adjust for Daylight Saving Time where and when it is observed.

FREDERICTON
NEW BRUNSWICK

45°52'08.000" N
66°32'14.000" W
20.70 m
8101505
71700
YFC

Download Data

Hourly Data (October 2014)
Hourly Data Report for October 23, 2014
Temp Definition
°C
Dew Point Temp Definition
°C
Rel Hum Definition
%
Wind Dir Definition
10's deg

Wind Spd Definition
km/h
Visibility Definition
km
Stn Press Definition
kPa
Hmdx Definition


Wind Chill Definition


Weather Definition


TIME
00:00 Legend Double Dagger 7.5 6.5 93 4 30 4.8 102.10     Rain,Fog
01:00 Legend Double Dagger 7.5 6.9 96 4 26 3.2 102.06     Rain,Fog
02:00 Legend Double Dagger 7.8 6.8 93 4 21 16.1 101.99     Rain
03:00 Legend Double Dagger 7.9 6.9 93 3 28 16.1 101.91     Rain
04:00 Legend Double Dagger 8.0 7.2 94 4 26 11.3 101.85     Moderate Rain
05:00 Legend Double Dagger 8.2 7.3 94 4 30 16.1 101.79     Rain
06:00 Legend Double Dagger 8.6 7.6 93 4 34 16.1 101.76     LegendNANA
07:00 Legend Double Dagger 8.9 8.0 94 4 41 16.1 101.73     LegendNANA
08:00 Legend Double Dagger 9.0 8.0 93 4 35 16.1 101.72     LegendNANA
09:00 Legend Double Dagger 9.2 8.1 93 4 28 16.1 101.69     Rain
10:00 Legend Double Dagger 9.5 8.1 91 3 37 16.1 101.64     LegendNANA
11:00 Legend Double Dagger 9.6 8.5 93 4 30 14.5 101.63     Rain
12:00 Legend Double Dagger 10.0 8.6 91 3 32 16.1 101.49     LegendNANA
13:00 Legend Double Dagger 10.3 8.6 89 4 22 16.1 101.42     LegendNANA
14:00 Legend Double Dagger 10.1 8.5 90 3 34 12.9 101.32     Rain
15:00 Legend Double Dagger 10.1 8.4 89 4 34 9.7 101.25     Rain,Fog
16:00 Legend Double Dagger 9.6 8.4 92 4 26 12.9 101.21     Rain
17:00 Legend Double Dagger 9.1 8.4 95 4 30 4.8 101.16     Rain,Fog
18:00 Legend Double Dagger 9.0 8.1 94 3 24 8.1 101.08     Rain,Fog
19:00 Legend Double Dagger 9.0 8.1 94 3 28 9.7 101.03     Rain,Fog
20:00 Legend Double Dagger 9.2 8.3 94 3 24 9.7 100.93     Rain,Fog
21:00 Legend Double Dagger 9.1 8.4 95 3 26 4.0 100.88     Moderate Rain,Fog
22:00 Legend Double Dagger 9.1 8.5 96 3 26 2.8 100.79     Moderate Rain,Fog
23:00 Legend Double Dagger 9.3 8.6 95 4 30 3.2 100.72     Rain,Fog

Notes on Data Quality.

Legend

  • E = Estimated
  • M = Missing
  • NA = Not Available
  • ‡ = Partner data that is not subject to review by the National Climate Archives
Date modified: